[[{"header":{"parameterUnit":"m.s-1","parameterCategory":1,"la1":30.2991,"la2":30.254,"lo1":-89.0895,"lo2":-89.0444,"dy":0.0017,"dx":0.0017,"nx":28,"ny":28,"refTime":"2025-04-16T21:00:00:Z","depth":0,"parameterNumber":2,"parameterNumberName":"U-component_of_WINDS"},"data":[0,0,0,0,0,0,0,0,0,0,0,0,0,0,0,0,0,0,0,0,0,0,0,0,0,0,0,0,0,0,0,0,0,0,0,0,0,0,0,0,0,0,0,0,0,0,0,0,0,0,0,0,0,0,0,0,0,0,-1.6606,-1.6607,0,-1.6667,-1.6668,-1.6668,-1.6678,-1.6677,-1.6677,-1.6676,-1.674,-1.6743,-1.6745,0,0,0,0,0,0,0,0,0,0,0,0,0,-1.6502,-1.6503,-1.6606,-1.6607,-1.6608,-1.6667,-1.6668,-1.6668,-1.6678,-1.6677,-1.6677,-1.6676,-1.674,-1.6742,-1.6745,0,0,0,0,0,0,0,0,0,0,0,0,0,-1.6553,-1.6504,-1.6606,-1.662,-1.6621,-1.6667,-1.6668,-1.6669,-1.6678,-1.6677,-1.6677,-1.6676,-1.6739,-1.6742,-1.6745,-1.6782,0,0,-1.6755,-1.6757,0,0,0,0,0,0,0,0,-1.655,-1.6557,-1.6617,-1.6619,-1.6621,-1.6664,-1.6654,-1.6707,-1.6678,-1.6657,-1.6676,-1.6676,-1.6716,-1.6721,-1.6734,-1.6785,-1.6787,-1.6756,-1.6758,-1.6759,-1.676,0,0,0,0,0,0,0,-1.6547,-1.6554,-1.663,-1.6618,-1.662,-1.6624,-1.663,-1.6664,-1.669,-1.6659,-1.6659,-1.6666,-1.6717,-1.6731,-1.6736,-1.6788,-1.6756,-1.6759,-1.6761,-1.6762,-1.6873,-1.6874,0,0,0,0,0,0,-1.654,-1.6551,-1.6628,-1.6632,-1.6583,-1.6626,-1.6633,-1.6651,-1.669,-1.6695,-1.6667,-1.6667,-1.6726,-1.6732,-1.6738,-1.6784,-1.6759,-1.6762,-1.6764,-1.6872,-1.6873,-1.6874,0,0,0,0,0,0,-1.6538,-1.6547,-1.6626,-1.6592,-1.6602,-1.6629,-1.6649,-1.6653,-1.6667,-1.6696,-1.6701,-1.6676,-1.6725,-1.6733,-1.6771,-1.6786,-1.6764,-1.6767,-1.6871,-1.6872,-1.6874,-1.6875,0,0,0,0,0,0,-1.6535,-1.6546,-1.6559,-1.6592,-1.6604,-1.6657,-1.6649,-1.6654,-1.6672,-1.6672,-1.6706,-1.6711,-1.6725,-1.6766,-1.6774,-1.679,-1.6769,-1.687,-1.6871,-1.6873,-1.6873,-1.6876,-1.6878,0,0,0,0,0,-1.6531,-1.6558,-1.656,-1.6569,-1.6621,-1.6658,-1.6665,-1.668,-1.6673,-1.6688,-1.6707,-1.671,-1.6783,-1.677,-1.6779,-1.6796,-1.6869,-1.6871,-1.6873,-1.6872,-1.6875,-1.6878,0,0,0,0,0,0,-1.6527,-1.6562,-1.6565,-1.6603,-1.6627,-1.6659,-1.6677,-1.6682,-1.6709,-1.6708,-1.6727,-1.6734,-1.6771,-1.6788,-1.6772,-1.6834,-1.6825,-1.683,-1.6822,-1.6825,-1.6827,-1.6822,-1.6772,0,0,0,0,0,-1.653,-1.6556,-1.6586,-1.6616,-1.6628,-1.6651,-1.6667,-1.6677,-1.6703,-1.6713,-1.6735,-1.6761,-1.679,-1.6808,-1.6836,-1.6876,-1.6884,-1.6892,-1.6895,-1.6897,-1.69,-1.6923,-1.6927,-1.6881,-1.6881,-1.6881,0,0,-1.6537,-1.656,-1.6575,-1.6616,-1.6636,-1.6663,-1.6659,-1.6688,-1.6709,-1.6718,-1.6754,-1.6772,-1.6802,-1.684,-1.6859,-1.6855,-1.6914,-1.6899,-1.6901,-1.6903,-1.6925,-1.693,-1.6933,-1.6883,-1.6883,-1.6882,0,0,-1.6564,-1.6584,-1.6611,-1.6631,-1.6661,-1.6676,-1.6683,-1.6715,-1.6726,-1.6763,-1.6771,-1.6796,-1.6845,-1.6866,-1.6883,-1.692,-1.6924,-1.6928,-1.6941,-1.6962,-1.6966,-1.6969,-1.6982,-1.6987,-1.6932,-1.6932,-1.6932,0,-1.657,-1.661,-1.6625,-1.6654,-1.6672,-1.6681,-1.671,-1.6729,-1.6767,-1.6779,-1.6775,-1.6837,-1.6858,-1.6902,-1.6911,-1.6925,-1.6933,-1.6924,-1.6964,-1.6968,-1.6971,-1.6984,-1.6989,-1.6932,-1.6932,-1.6932,-1.6932,0,-1.6615,-1.6643,-1.6662,-1.6698,-1.6718,-1.6747,-1.6767,-1.6786,-1.6794,-1.681,-1.6848,-1.6874,-1.6907,-1.6919,-1.6927,-1.6964,-1.6961,-1.696,-1.6952,-1.6975,-1.6988,-1.6993,-1.6932,-1.6932,-1.6932,-1.6932,0,0,-1.6641,-1.6685,-1.6691,-1.6708,-1.6742,-1.6764,-1.6794,-1.6826,-1.6842,-1.6869,-1.6894,-1.6936,-1.6935,-1.6955,-1.6966,-1.6985,-1.7013,-1.6982,-1.6983,-1.6987,-1.7056,-1.7056,-1.7061,-1.7016,-1.7017,-1.7018,-1.7053,0,-1.6672,-1.6723,-1.6738,-1.6782,-1.6809,-1.6818,-1.6844,-1.6868,-1.6884,-1.691,-1.6928,-1.6957,-1.6954,-1.6966,-1.6985,-1.7005,-1.7027,-1.7003,-1.7041,-1.7042,-1.7032,-1.7068,-1.7068,-1.71,-1.7058,-1.7059,-1.706,0,-1.6715,-1.6741,-1.6787,-1.6819,-1.683,-1.6853,-1.6884,-1.6908,-1.6936,-1.6947,-1.6969,-1.6978,-1.701,-1.7001,-1.7046,-1.7029,-1.7046,-1.7058,-1.7059,-1.7063,-1.7052,-1.7073,-1.7111,-1.7116,-1.7067,-1.7067,-1.7066,0,-1.6729,-1.6776,-1.681,-1.6824,-1.6861,-1.6877,-1.6893,-1.692,-1.6939,-1.6967,-1.6979,-1.7011,-1.7028,-1.7052,-1.707,-1.7061,-1.7114,-1.7105,-1.7123,-1.7123,-1.7134,-1.7133,-1.7175,-1.7145,-1.7144,-1.7144,-1.7144,0,-1.6762,-1.679,-1.6817,-1.6838,-1.687,-1.6887,-1.6918,-1.6936,-1.696,-1.6985,-1.6996,-1.7019,-1.7041,-1.7068,-1.7083,-1.7118,-1.7126,-1.7135,-1.7139,-1.7134,-1.7133,-1.7145,-1.7143,-1.7146,-1.7145,-1.7145,-1.7145,0,-1.6783,-1.6802,-1.6839,-1.6871,-1.688,-1.6902,-1.693,-1.6952,-1.6968,-1.6999,-1.7008,-1.7034,-1.7066,-1.7086,-1.7127,-1.7137,-1.7176,-1.7179,-1.7166,-1.7167,-1.7184,-1.7182,-1.7236,-1.7244,-1.7208,-1.7208,-1.7209,0,-1.6803,-1.6824,-1.6859,-1.6876,-1.6892,-1.692,-1.6939,-1.6957,-1.6977,-1.701,-1.7028,-1.706,-1.7087,-1.7138,-1.7161,-1.7193,-1.7197,-1.7213,-1.7202,-1.7196,-1.7197,-1.7196,-1.7198,-1.7215,-1.7215,-1.7216,-1.7216,0,-1.6836,-1.6844,-1.6871,-1.6901,-1.6923,-1.6948,-1.6973,-1.6986,-1.7009,-1.7031,-1.7063,-1.7084,-1.7126,-1.7158,-1.7192,-1.721,-1.7217,-1.7219,-1.7225,-1.7221,-1.7212,-1.7217,-1.7171,-1.7218,-1.7218,-1.7218,-1.7218,-1.7217,-1.6857,-1.6877,-1.6904,-1.6934,-1.6954,-1.6977,-1.6998,-1.7017,-1.7044,-1.7079,-1.7089,-1.7123,-1.7152,-1.7197,-1.7216,-1.7244,-1.7242,-1.725,-1.7252,-1.7254,-1.7254,-1.7208,-1.725,-1.725,-1.725,-1.725,-1.725,0,-1.6891,-1.6909,-1.6936,-1.697,-1.6993,-1.6997,-1.7025,-1.7044,-1.7074,-1.71,-1.7126,-1.7164,-1.7195,-1.7221,-1.7254,-1.7271,-1.7275,-1.7279,-1.7278,-1.7282,-1.7254,-1.7246,-1.7275,-1.7275,-1.7275,-1.7275,-1.7275,-1.7275,-1.6912,-1.6945,-1.6957,-1.7002,-1.702,-1.7052,-1.7068,-1.709,-1.711,-1.7151,-1.7177,-1.7194,-1.722,-1.7255,-1.7284,-1.7291,-1.7303,-1.7306,-1.7314,-1.7287,-1.7284,-1.7281,-1.7274,-1.7308,-1.7308,-1.7339,-1.7339,-1.734]},{"header":{"parameterUnit":"m.s-1","parameterCategory":1,"la1":30.2991,"la2":30.254,"lo1":-89.0895,"lo2":-89.0444,"dy":0.0017,"dx":0.0017,"nx":28,"ny":28,"refTime":"2025-04-16T21:00:00:Z","depth":0,"parameterNumber":3,"parameterNumberName":"V-component_of_WINDS"},"data":[0,0,0,0,0,0,0,0,0,0,0,0,0,0,0,0,0,0,0,0,0,0,0,0,0,0,0,0,0,0,0,0,0,0,0,0,0,0,0,0,0,0,0,0,0,0,0,0,0,0,0,0,0,0,0,0,0,0,6.2696,6.2697,0,6.2783,6.2784,6.2785,6.2737,6.2735,6.2733,6.273,6.2812,6.2817,6.2821,0,0,0,0,0,0,0,0,0,0,0,0,0,6.2478,6.2482,6.2696,6.2697,6.2698,6.2783,6.2784,6.2785,6.2738,6.2735,6.2732,6.2729,6.2811,6.2816,6.2821,0,0,0,0,0,0,0,0,0,0,0,0,0,6.257,6.2484,6.2695,6.2685,6.2684,6.2783,6.2784,6.2786,6.2738,6.2735,6.2731,6.2728,6.2809,6.2816,6.2822,6.2934,0,0,6.2842,6.2845,0,0,0,0,0,0,0,0,6.2564,6.2578,6.2685,6.2685,6.2686,6.2746,6.2737,6.2835,6.2739,6.2718,6.273,6.2726,6.2793,6.28,6.2824,6.2938,6.2941,6.2843,6.2847,6.285,6.2851,0,0,0,0,0,0,0,6.2558,6.2573,6.273,6.2687,6.2687,6.2672,6.2681,6.2756,6.2774,6.2719,6.2716,6.2728,6.2792,6.2818,6.2826,6.2942,6.2843,6.2848,6.2853,6.2855,6.3149,6.3152,0,0,0,0,0,0,6.2554,6.2569,6.2727,6.2733,6.2615,6.2679,6.2689,6.273,6.2773,6.2776,6.273,6.2725,6.2809,6.2818,6.2829,6.296,6.285,6.2856,6.286,6.3145,6.3149,6.3154,0,0,0,0,0,0,6.2549,6.2568,6.2724,6.265,6.2669,6.2687,6.2733,6.2734,6.276,6.2781,6.2783,6.2754,6.2806,6.2819,6.2908,6.2963,6.2859,6.2865,6.314,6.3146,6.3151,6.3226,0,0,0,0,0,0,6.2543,6.2567,6.2612,6.2651,6.2673,6.2805,6.2736,6.2738,6.2772,6.2766,6.2804,6.2807,6.2804,6.2898,6.2914,6.297,6.287,6.3135,6.3143,6.315,6.3219,6.3234,6.3247,0,0,0,0,0,6.2536,6.2628,6.2615,6.2634,6.273,6.2808,6.282,6.2817,6.2777,6.282,6.2834,6.2806,6.2954,6.2908,6.2926,6.2984,6.3132,6.3141,6.3149,6.3213,6.3231,6.3246,0,0,0,0,0,0,6.2593,6.2633,6.2618,6.2728,6.2765,6.28,6.2855,6.2836,6.2884,6.2876,6.2867,6.2876,6.2968,6.2985,6.2932,6.3093,6.3036,6.3049,6.3079,6.3096,6.311,6.3103,6.2875,0,0,0,0,0,6.2618,6.2681,6.2712,6.2805,6.2825,6.2837,6.2871,6.2865,6.2903,6.2917,6.2937,6.2972,6.3026,6.3062,6.3113,6.3221,6.3227,6.327,6.3283,6.3295,6.3305,6.3361,6.3379,6.3182,6.3182,6.3182,0,0,6.2671,6.2701,6.2741,6.2817,6.2846,6.2908,6.285,6.2919,6.2964,6.2927,6.3012,6.3028,6.3066,6.3164,6.3209,6.3181,6.3361,6.3306,6.3315,6.3319,6.3372,6.339,6.3407,6.3188,6.3187,6.3186,0,0,6.2799,6.283,6.291,6.2939,6.2984,6.2991,6.301,6.3048,6.3057,6.3143,6.3116,6.3168,6.3262,6.329,6.3316,6.3453,6.3428,6.347,6.3542,6.3596,6.3612,6.3625,6.3672,6.369,6.3481,6.3481,6.3481,0,6.2859,6.2955,6.2952,6.3023,6.3056,6.3027,6.3106,6.3134,6.3192,6.3214,6.3183,6.3299,6.3323,6.3426,6.346,6.3483,6.3502,6.3465,6.361,6.3624,6.3637,6.3681,6.3699,6.3485,6.3485,6.3484,6.3484,0,6.3024,6.3091,6.3149,6.3208,6.3248,6.3322,6.3328,6.3368,6.3358,6.3368,6.3454,6.3481,6.3537,6.3561,6.3551,6.3662,6.3643,6.3612,6.3555,6.366,6.3702,6.3719,6.3492,6.349,6.3489,6.3488,0,0,6.3191,6.3248,6.3269,6.3294,6.3341,6.339,6.3462,6.3518,6.3551,6.3591,6.3649,6.3729,6.37,6.373,6.3723,6.3771,6.3875,6.3733,6.3733,6.3757,6.3996,6.4019,6.4039,6.3859,6.3863,6.3865,6.3992,0,6.3321,6.345,6.3449,6.3566,6.3626,6.3599,6.366,6.3693,6.3704,6.3753,6.3763,6.3819,6.3777,6.3795,6.3841,6.3853,6.3923,6.3844,6.391,6.3913,6.3901,6.4061,6.4086,6.4204,6.4008,6.4011,6.4013,0,6.3491,6.3539,6.3663,6.3698,6.3723,6.378,6.383,6.3879,6.3914,6.3918,6.3951,6.3937,6.4006,6.3948,6.4042,6.3988,6.4015,6.4024,6.4029,6.4034,6.3969,6.4069,6.4242,6.4259,6.4039,6.4037,6.4035,0,6.3598,6.3693,6.3779,6.3802,6.3846,6.3886,6.3905,6.3938,6.3971,6.4014,6.4035,6.4085,6.4112,6.4149,6.4147,6.4106,6.4241,6.4184,6.4244,6.4244,6.4273,6.4271,6.4452,6.4293,6.4293,6.4292,6.4292,0,6.3743,6.3819,6.3828,6.3881,6.3964,6.3961,6.4043,6.4058,6.4087,6.414,6.4118,6.4168,6.4163,6.4212,6.421,6.4287,6.4299,6.4302,6.43,6.4304,6.4303,6.432,6.4311,6.4297,6.4296,6.4295,6.4294,0,6.3877,6.3886,6.3978,6.4012,6.4023,6.4083,6.411,6.4159,6.4167,6.4234,6.4249,6.4261,6.4317,6.4319,6.4383,6.4382,6.4475,6.4465,6.4464,6.4461,6.4521,6.4515,6.4718,6.4743,6.4569,6.4571,6.4572,0,6.3968,6.4026,6.4068,6.4103,6.4125,6.4182,6.4216,6.4214,6.4249,6.4294,6.4336,6.4391,6.4434,6.4525,6.4537,6.4586,6.4576,6.4643,6.4582,6.4583,6.4574,6.4571,6.4575,6.4655,6.4657,6.4658,6.466,0,6.4128,6.413,6.4181,6.4234,6.4276,6.4317,6.4355,6.4384,6.4385,6.4426,6.4485,6.4519,6.4585,6.4638,6.4685,6.4701,6.468,6.4679,6.4695,6.4698,6.4695,6.4695,6.4495,6.4674,6.4673,6.4672,6.4671,6.467,6.4243,6.4293,6.4329,6.4386,6.4415,6.445,6.4497,6.4512,6.4561,6.4616,6.4611,6.4675,6.4706,6.4767,6.4788,6.4836,6.4812,6.4836,6.4842,6.4848,6.4853,6.4688,6.4845,6.4844,6.4844,6.4844,6.4843,0,6.44,6.4423,6.4476,6.453,6.4574,6.4553,6.4593,6.463,6.4688,6.472,6.4764,6.483,6.4881,6.4898,6.4947,6.4982,6.4973,6.4994,6.4991,6.4995,6.4873,6.4853,6.5001,6.5001,6.5001,6.5001,6.5001,6.5001,6.4488,6.4571,6.4576,6.4671,6.4692,6.4757,6.4781,6.4812,6.4838,6.4913,6.4957,6.4968,6.4993,6.5043,6.5088,6.5092,6.511,6.5135,6.5134,6.502,6.5004,6.4989,6.497,6.514,6.514,6.5252,6.5253,6.5254]}]]